Retour au catalogue

YIJIAN

ActifScienceSSO
NORAD 41899·PAYLOAD·🇨🇳 China

Lancé Dec 21, 2016 depuis Jiuquan Satellite Launch Center

Loading…

Prochains Passages (prochaines 24 heures)

TLE

FraisSource: Space-Track

Époque: Sep 14, 2026, 10:44 UTC

1 41899U 16081B   26257.44748789  .00000420  00000-0  95979-4 0  9999
2 41899  98.5439 258.1423 0021622  35.7306 324.5336 14.60851642517627

Suivez YIJIAN en temps réel avec AllMySat

Download on the App Store